NOAA 16 DEB

Satellite information

Favourite Embed

Satellite Type and Status

DEBRISIN ORBIT

Key statistics

Satellite NOAA 16 DEB at a glance.

Uptime

8995

Days in orbit

Revolutions

≈ 14.5

Per day

Orbit

SSO

Sun Synchronous Orbit

Inclination

98.8

Latest

Satellite identification and parameters

Extended collection of information and parameters for NOAA 16 DEB.

Object identification

Identified? True

Debris? True

Object name: NOAA 16 DEB

International designator: 2000-055FF

Object number (NORAD): 41255

Object ID (CCSDS): 41255

Country: UNITED STATES OF AMERICA (US)

Current information (Y/N): Y

RCS size: SMALL

Orbital parameters

Period: 99.315 minutes

Inclination: 98.7505 deg

SMA: 7104.009 km

Apoapsis: 751.429 km

Periapsis: 700.319 km

RAAN: 250.5293 deg

Eccentricy: 0.0035973

Argument of periapsis: 153.4847 deg

Mean anomaly: 206.8196 deg

Mean motion: 14.49931601 rev/day

Mean motion (dot): 0.00012231 rev/day2

B* drag term: 0.0031441 1/REarth

Two-line elements (TLE)

Creation date: May 7, 2025, 10:26 p.m.

Reference frame: TEME

Reference center: EARTH

Epoch: May 6, 2025, 1:50 p.m. UTC

TLE line 0: 0 NOAA 16 DEB

TLE line 1: 1 41255U 00055FF 25126.57646571 .00012231 00000-0 31441-2 0 9998

TLE line 2: 2 41255 98.7505 250.5293 0035973 153.4847 206.8196 14.49931601490304

Live tracking on map

Real-time ground track for satellite NOAA 16 DEB.

In-orbit conjunctions

A list of the most updated potential collisions computed for object NOAA 16 DEB.

Target Orbit TCA Probability of collision Miss distance Type
COSMOS 1814 LEO 2025-02-05 20:50:29 0.0003934724 50.0 (m) PAYLOAD

Associated space launch

The NOAA K, L and M POES satellites begin the fifth generation of improved environmental monitoring in support of NOAA missions. The instrument payload has significant improvements and additions/deletions. The instrument changes have effected the spacecraft subsystems and data formats.

NOAA 16 DEB was lifted into orbit during the mission ‘Titan II SLV | NOAA 16’, on board a Titan II SLV space rocket.

The launch took place on Sept. 21, 2000, 10:22 a.m. from Space Launch Complex 4W.

For more information about the launch, click the button.

Launch to space Titan II SLV | NOAA 16
Titan II SLV | NOAA 16

Agency: N/A

Status: Launch Successful

Launch date: Sept. 21, 2000, 10:22 a.m. UTC

Rocket: Titan II SLV

Launch pad: Space Launch Complex 4W

Location: Vandenberg SFB, CA, USA

...

Latest news about this satellite

There are no fresh news available about this satellite. Check back as we update our databases every day.


Newsletter sign-up

Weekly statistics, charts and insights to help you stay on top of the space industry.